{"data":{"norad_id":69337,"intl_designator":"2026-122J","name":"STARLINK-37765","alt_names":[],"object_type":"PAYLOAD","status":"ACTIVE","operator":null,"country":"US","launch_date":"2026-06-03","launch_site_code":"AFWTR","launch_vehicle":null,"mission":null,"orbit_class":"UNKNOWN","rcs_meters":null,"size_class":null,"mass_kg":null,"dimensions":null,"purposes":["comms"],"wikipedia_slug":null,"has_3d_model":false,"image_url":null,"decayed_at":null,"tle_current":{"epoch":"2026-09-20T00:25:31.898784Z","epoch_age_seconds":70600,"freshness":"FRESH","line1":"1 69337U 26122J   26263.01773031  .00013230  00000+0  41111-3 0  9991","line2":"2 69337  97.2840 291.6147 0001008  85.4416 274.6942 15.33466901 16725","mean_motion":15.33466901,"eccentricity":0.0001008,"inclination_deg":97.284,"raan_deg":291.6147,"arg_perigee_deg":85.4416,"mean_anomaly_deg":274.6942,"bstar":0.00041111,"rev_number":1672,"period_min":93.904863486845,"perigee_km":464.78817689299,"apogee_km":466.16784967967,"semimajor_km":6843.6150132863,"source":"CELESTRAK","updated_at":"2026-09-20T09:00:44.160527Z"}}}